View from above orbital plane
|
View from above satellite
|
Ground track
|
The orbit data is extracted from the following two-line orbital elements,
1 43196U 18015E 21023.30938391 .00000601 00000-0 27147-4 0 9994
2 43196 97.4633 156.6346 0019680 54.0061 306.2998 15.24693648165397
Epoch (UTC): | 23 January 2021 07:25:30 |
Eccentricity: | 0.0019680 |
inclination: | 97.4633° |
perigee height: | 478 km |
apogee height: | 505 km |
right ascension of ascending node: | 156.6346° |
argument of perigee: | 54.0061° |
revolutions per day: | 15.24693648 |
mean anomaly at epoch: | 306.2998° |
orbit number at epoch: | 16539 |
The dashed part of the orbit path shows where the satellite is in the earth's shadow,
|
|